星链-30991 (STARLINK-30991 )

导读

STARLINK-30991是美国太空探索技术公司(SpaceX)部署的星链(Starlink)卫星,属于第二代小型星链卫星(Starlink V2.0 Mini),于北京时间2023年12月3日由猎鹰九号火箭从卡纳维拉尔角太空军基地发射入轨,单星重约790千克。星链星座旨在为全球提供高速宽带互联网服务,该卫星是星链星座扩容的重要组成部分,助力星座服务覆盖拓展,其服役寿命约5至7年,退役后会主动离轨再入大气层销毁。

基本信息
目录编号:
58484
目录名称:
STARLINK-30991
国际标识:
2023-186M
轨道中心:
EARTH
卫星名称:
星链-30991
卫星全名:
星链-30991 (STARLINK-30991 )
卫星状态:
在轨 (已飞行1013 天)
发射日期:
2023-12-03 UTC
国别 :
美国 (US)
星等 :
--
该卫星已列入 空间交会检测服务 Space Conjunction Data Service (SCDS) ,当前飞行风险评估等级: 高风险
轨道信息
数据来源 国际轨道数据
星历时间: 2026-09-11T06:46:45+0800
18小时前
查看轨道信息
半长轴: 6861.196km
偏心率: 0.0001299
轨道倾角: 43.004°
近地点辐角 263.574°
升交点赤经 97.017°
平近点角 96.497°
近地点: 482.167km
远地点: 483.951km
周期: 94.267分钟
每日圈数: 15.275767
详细信息
固有亮度:
5
最大亮度:
0.3
卫星平台:
Starlink v2.0 mini
覆盖范围:
全球
运营商:
太空探索技术公司
运营商所在国:
美国
制造商(研发单位):
太空探索技术公司
制造商所在国:
美国
使用方式:
暂无
卫星简介
星链(Starlink)计划是由太空探索技术公司(SpaceX)提出的一个巨型低轨卫星互联网星座项目,计划在2019年至2024年间在太空搭建由约1.2万颗卫星组成的“星链”网络,其中1584颗将部署在地球上空550千米处的近地轨道,并从2020年开始工作。该卫星仍在工作。
2D轨道图
3D轨道图
轨道高度分析图
轨道倾角分析图
轨道综合分析图
查看轨道综合分析图
交会数据列表
事件ID 空间交会对象 最接近时刻(TCA) 交会距离 交会风险概率(CRP) 交会风险指数(CRI) 操作
CDM_260912-202305-848406-192122
2026-09-12T
20:23:55+0000
0.129 km
中距离
9.865728E-4 高风险 0.95
CDM_260913-181705-848406-220521
2026-09-13T
18:17:50+0000
0.197 km
中距离
7.198957E-4 高风险 0.92
CDM_260912-000604-378405-848425
SNUGLITE (43784)
2026-09-12T
00:06:35+0000
0.392 km
远距离
3.225273E-4 高风险 0.85
CDM_260913-052605-848406-763821
2026-09-13T
05:26:34+0000
0.551 km
远距离
9.769144E-5 中风险 0.75
CDM_260912-233105-848406-652622
2026-09-12T
23:31:37+0000
0.700 km
远距离
6.567013E-5 中风险 0.71
CDM_260913-094405-848406-192121
2026-09-13T
09:44:13+0000
0.983 km
远距离
2.160514E-5 中风险 0.62
CDM_260913-195505-848406-643321
2026-09-13T
19:55:01+0000
1.068 km
极远距离
1.640492E-5 中风险 0.59
CDM_260913-123005-848406-763821
2026-09-13T
12:30:15+0000
1.086 km
极远距离
1.140576E-5 中风险 0.56
CDM_260913-182005-848406-643321
2026-09-13T
18:20:52+0000
1.626 km
极远距离
3.994005E-6 低风险 0.47
CDM_260913-125105-848406-652621
2026-09-13T
12:51:55+0000
1.784 km
极远距离
3.02225E-6 低风险 0.45
与全量物体交会距离演化趋势
与全量物体交会风险概率演化趋势